SWR44C LSZH-EDDF

Flight info

Callsign SWR44C
Flight time N/A
Altitude 20000
Route LSZH/32 N0402F200 DEGE5L DEGES Z1 SUDEN T164 KOVAN T163 SPESA SPES5B EDDF/25R
Aircraft A320/M-SDE3FGHIRWY/LB1

Departure

Time 2026-02-17 16:14
Airport Zürich Airport (LSZH)

Arrival

Time N/A
Airport Frankfurt Main Airport (EDDF)
Time Latitude Longitude Altitude Speed Heading
2026-02-17 15:54 47.45567 8.55970 1398 ft 0 kts
2026-02-17 16:06 47.45608 8.55979 1399 ft 7 kts 18°
2026-02-17 16:07 47.45626 8.56029 1399 ft 5 kts 85°
2026-02-17 16:07 47.45621 8.56100 1397 ft 8 kts 96°
2026-02-17 16:07 47.45615 8.56198 1399 ft 10 kts 95°
2026-02-17 16:07 47.45630 8.56253 1404 ft 1 kts 43°
2026-02-17 16:08 47.45637 8.56261 1404 ft 0 kts 33°
2026-02-17 16:11 47.45644 8.56264 1396 ft 3 kts 21°
2026-02-17 16:12 47.45669 8.56271 1397 ft 11 kts
2026-02-17 16:12 47.45763 8.56287 1404 ft 12 kts
2026-02-17 16:12 47.45837 8.56298 1406 ft 10 kts
2026-02-17 16:12 47.45950 8.56315 1404 ft 21 kts
2026-02-17 16:13 47.46104 8.56337 1402 ft 24 kts
2026-02-17 16:13 47.46262 8.56267 1401 ft 26 kts 316°
2026-02-17 16:13 47.46517 8.55919 1394 ft 84 kts 317°
2026-02-17 16:13 47.47093 8.55132 1396 ft 139 kts 317°
2026-02-17 16:14 47.47896 8.54022 1568 ft 171 kts 312°
2026-02-17 16:14 47.48846 8.52766 1949 ft 195 kts 316°
2026-02-17 16:14 47.51138 8.50572 3924 ft 196 kts 325°
2026-02-17 16:15 47.52273 8.49480 4797 ft 193 kts 313°
2026-02-17 16:15 47.53088 8.47932 5711 ft 190 kts 295°
2026-02-17 16:15 47.53489 8.46098 6670 ft 188 kts 278°
2026-02-17 16:15 47.53452 8.44150 7515 ft 193 kts 262°
2026-02-17 16:16 47.52958 8.42255 8335 ft 201 kts 250°
2026-02-17 16:16 47.52347 8.40368 9186 ft 204 kts 250°
2026-02-17 16:16 47.51630 8.38529 9864 ft 223 kts 235°
2026-02-17 16:16 47.50223 8.37182 10230 ft 267 kts 202°
2026-02-17 16:17 47.48236 8.37203 10558 ft 311 kts 170°
2026-02-17 16:17 47.46259 8.38878 10885 ft 349 kts 139°
2026-02-17 16:17 47.44865 8.41971 11150 ft 378 kts 111°
2026-02-17 16:17 47.44450 8.45883 11494 ft 395 kts 85°
2026-02-17 16:18 47.44733 8.49944 12152 ft 400 kts 79°
2026-02-17 16:18 47.45072 8.54054 12913 ft 405 kts 79°
2026-02-17 16:18 47.45582 8.62454 14337 ft 416 kts 86°
2026-02-17 16:19 47.45570 8.66546 14955 ft 381 kts 85°
2026-02-17 16:19 47.45536 8.70395 15644 ft 357 kts 85°